Stations météo

réclame
Mon MeteoGroup
Norderney, Allemagne (10113): Température de l'air & dewpoint: 21.04.2018 08:00:00 - 27.04.2018 08:00:00 (CEST)Norderney, Allemagne (10113): Température de l'air 5cm & Température de l'air -5cm: 21.04.2018 08:00:00 - 27.04.2018 08:00:00 (CEST)Norderney, Allemagne (10113): Température de l'air -20cm & Température de l'air -100cm: 21.04.2018 08:00:00 - 27.04.2018 08:00:00 (CEST)Norderney, Allemagne (10113): Vitesse du vent & gusts: 21.04.2018 08:00:00 - 27.04.2018 08:00:00 (CEST)Norderney, Allemagne (10113): Direction du vent: 21.04.2018 08:00:00 - 27.04.2018 08:00:00 (CEST)Norderney, Allemagne (10113): reduced air pressure: 21.04.2018 08:00:00 - 27.04.2018 08:00:00 (CEST)Norderney, Allemagne (10113): visibility: 21.04.2018 08:00:00 - 27.04.2018 08:00:00 (CEST)Norderney, Allemagne (10113): Ensoleillement: 21.04.2018 08:00:00 - 27.04.2018 08:00:00 (CEST)Norderney, Allemagne (10113): Quantités de précipitations: 21.04.2018 08:00:00 - 27.04.2018 08:00:00 (CEST)
Date & Time tt [°C] td [°C] tt 5cm [°C] tt -5cm [°C] tt -20cm [°C] tt -100cm [°C] ff [km/h] ff [knt] fx [km/h] fx [knt] dd ppp [hPa] vv [km] sd [min] rr [mm]
27.04.2018 08:00:00 8,7 7,5 8,9 9,1 10,5 11,2 13 7 26 14 S 1012,9 12 3 0,0
27.04.2018 07:00:00 8,4 7,3 7,9 8,5 10,7 11,2 15 8 25 14 SSW 1012,9 10 0 0,0
27.04.2018 06:00:00 8,7 7,2 7,6 8,5 10,9 11,2 18 10 30 16 SW 1012,8 13 0 0,0
27.04.2018 05:00:00 8,7 6,7 7,5 8,7 11,2 11,2 20 11 36 19 SW 1012,9 18 0 0,0
27.04.2018 04:00:00 9,0 6,7 7,7 9,0 11,5 11,2 19 10 36 19 SW 1013,1 22 0 0,0
27.04.2018 03:00:00 9,4 6,5 8,2 9,4 11,8 11,2 24 13 39 21 SW 1013,3 26 0 0,0
27.04.2018 02:00:00 9,5 6,1 8,2 9,7 12,1 11,2 22 12 37 20 SW 1013,7 37 0 0,0
27.04.2018 01:00:00 9,6 5,2 8,2 10,1 12,5 11,2 21 12 50 27 SW 1013,8 61 0 0,0
27.04.2018 00:00:00 9,9 6,3 8,7 10,7 12,8 11,2 24 13 40 21 SW 1014,0 28 0 0,0
26.04.2018 23:00:00 10,4 6,0 9,7 11,3 13,2 11,2 23 12 42 23 SW 1013,8 34 0 0,0
26.04.2018 22:00:00 10,4 6,0 9,6 11,8 13,7 11,2 23 13 37 20 WSW 1014,0 32 0 0,0
26.04.2018 21:00:00 10,2 5,1 8,9 12,8 14,1 11,3 24 13 42 23 WSW 1013,8 32 39 0,0
26.04.2018 20:00:00 10,4 4,5 10,0 14,5 14,4 11,3 29 16 50 27 W 1013,8 25 47 0,0
26.04.2018 19:00:00 10,1 5,3 10,9 15,8 14,5 11,3 35 19 50 27 W 1013,6 28 38 0,0
26.04.2018 18:00:00 9,9 5,7 11,1 17,3 14,4 11,3 36 19 51 28 W 1013,6 9 60 0,0
26.04.2018 17:00:00 9,9 6,0 11,1 18,0 14,1 11,3 39 21 52 28 W 1013,5 14 47 0,0
26.04.2018 16:00:00 10,2 6,2 12,9 18,2 13,6 11,3 36 19 53 28 W 1013,4 15 53 0,0
26.04.2018 15:00:00 10,5 6,8 13,4 18,3 13,0 11,4 32 18 50 27 W 1012,9 11 59 0,0
26.04.2018 14:00:00 10,5 6,9 13,4 17,0 12,3 11,4 34 19 48 26 W 1012,4 12 51 0,0
26.04.2018 13:00:00 10,1 6,2 12,6 15,7 11,6 11,4 33 18 49 26 W 1012,0 5 58 0,0
26.04.2018 12:00:00 9,8 6,3 12,5 13,6 11,0 11,4 34 18 46 25 W 1011,7 11 53 0,0
26.04.2018 11:00:00 9,4 6,0 11,5 12,6 10,6 11,4 29 16 43 23 W 1011,3 10 59 0,0
26.04.2018 10:00:00 9,2 6,0 10,9 10,7 10,3 11,4 29 15 45 25 W 1010,6 13 51 0,0
26.04.2018 09:00:00 9,1 6,3 10,3 9,2 10,3 11,5 30 16 44 24 W 1010,0 19 16 0,0
26.04.2018 08:00:00 8,9 6,5 8,7 8,9 10,3 11,5 32 17 45 25 W 1009,4 22 0 0,0
26.04.2018 07:00:00 8,9 6,5 8,4 8,7 10,4 11,5 29 16 47 26 W 1008,8 22 0 0,0
26.04.2018 06:00:00 9,1 6,2 8,6 8,7 10,5 11,5 31 17 45 24 W 1008,5 30 0 0,0
26.04.2018 05:00:00 9,1 6,5 8,3 8,8 10,7 11,5 29 15 47 25 W 1008,5 30 0 0,0
26.04.2018 04:00:00 9,4 5,9 7,6 9,0 10,8 11,5 24 13 37 20 WSW 1008,4 54 0 0,3
26.04.2018 03:00:00 8,9 5,2 8,2 9,1 11,0 11,5 18 10 45 24 SW 1008,6 70 0 0,0
26.04.2018 02:00:00 9,8 7,6 9,3 9,2 11,1 11,5 22 12 34 18 SW 1008,9 14 0 0,0
26.04.2018 01:00:00 10,0 7,2 9,2 9,1 11,3 11,5 18 10 31 17 SW 1009,1 18 0 0,0
26.04.2018 00:00:00 9,8 6,3 8,4 8,9 11,7 11,6 13 7 28 15 WSW 1009,3 40 0 0,0
25.04.2018 23:00:00 9,6 6,3 8,0 9,2 12,0 11,6 20 11 35 19 WSW 1009,7 31 0 0,0
25.04.2018 22:00:00 9,5 5,7 8,2 9,7 12,5 11,6 22 12 40 22 WSW 1009,6 30 0 0,0
25.04.2018 21:00:00 9,0 6,0 8,0 10,6 12,8 11,6 28 15 42 23 W 1009,3 29 16 0,0
25.04.2018 20:00:00 8,8 6,8 8,6 12,0 13,1 11,6 33 18 50 27 W 1009,1 23 20 0,0
25.04.2018 19:00:00 9,5 7,2 10,0 13,1 13,2 11,6 27 15 42 23 W 1009,0 15 20 0,0
25.04.2018 18:00:00 9,9 7,1 11,3 13,6 13,2 11,6 21 11 37 20 W 1009,3 18 12 0,0
25.04.2018 17:00:00 9,9 6,6 11,1 14,9 13,0 11,6 24 13 35 19 W 1009,5 24 13 0,0
25.04.2018 16:00:00 10,1 6,7 11,6 14,3 12,8 11,6 22 12 34 19 W 1009,7 34 0 0,0
25.04.2018 15:00:00 9,8 6,5 11,8 13,8 12,6 11,6 23 12 35 19 W 1009,6 28 1 0,0
25.04.2018 14:00:00 8,9 5,9 10,4 13,3 12,4 11,6 23 12 32 18 W 1009,4 36 0 0,0
25.04.2018 13:00:00 8,6 5,6 10,3 12,9 12,1 11,6 25 13 35 19 WNW 1008,9 29 4 0,0
25.04.2018 12:00:00 8,2 5,7 9,5 11,4 12,1 11,7 32 17 43 23 NW 1008,0 16 3 0,0
25.04.2018 11:00:00 7,3 6,4 7,5 10,7 12,2 11,7 35 19 46 25 NW 1006,9 4,2 0 0,0
25.04.2018 10:00:00 7,9 6,5 7,9 10,8 12,4 11,7 39 21 72 39 NW 1005,3 14 6 0,0
25.04.2018 09:00:00 7,5 7,0 7,8 11,0 12,6 11,7 57 31 67 36 NW 1001,8 7 0 0,0
25.04.2018 08:00:00 9,4 8,1 9,1 11,4 12,7 11,7 34 18 66 36 WSW 1000,7 15 0 0,0
25.04.2018 07:00:00 12,0 10,3 11,1 11,9 12,8 11,7 32 18 51 27 SW 1000,4 19 0 0,0
25.04.2018 06:00:00 11,7 10,9 11,1 11,9 12,9 11,7 32 17 52 28 SW 1000,7 13 0 1,1
25.04.2018 05:00:00 12,0 10,6 11,2 12,0 13,0 11,6 28 15 60 32 SW 1001,4 10 0 0,3
25.04.2018 04:00:00 12,3 11,0 11,4 11,9 13,1 11,6 29 16 49 26 SW 1002,3 16 0 0,3
25.04.2018 03:00:00 11,4 10,9 11,0 11,6 13,2 11,6 23 13 40 22 SSW 1003,2 4,8 0 0,2
25.04.2018 02:00:00 9,7 9,3 9,4 11,4 13,5 11,6 19 10 30 16 SSE 1004,5 4,3 0 0,9
25.04.2018 01:00:00 9,2 8,7 8,9 11,5 13,8 11,6 18 10 27 14 SSE 1006,3 4,2 0 1,4
25.04.2018 00:00:00 9,0 8,3 8,7 11,8 14,2 11,6 12 6 20 11 SSE 1008,4 6 0 1,4
24.04.2018 23:00:00 8,4 7,5 8,2 12,2 14,6 11,6 0 0 14 8 N 1009,7 6 0 1,4
24.04.2018 22:00:00 8,7 7,5 8,2 12,6 15,1 11,6 11 6 19 11 WNW 1010,9 8 0 1,1
24.04.2018 21:00:00 8,8 7,6 8,2 13,7 15,6 11,6 15 8 24 13 W 1011,4 7 0 1,6
24.04.2018 20:00:00 9,1 7,7 8,7 15,2 15,9 11,6 18 10 27 14 W 1011,6 7 0 0,6
24.04.2018 19:00:00 9,7 8,0 9,4 16,5 16,2 11,6 23 13 31 17 W 1012,3 9 0 0,2
24.04.2018 18:00:00 10,4 7,0 11,4 17,9 16,2 11,6 23 12 34 19 W 1012,8 21 0 0,0
24.04.2018 17:00:00 11,0 7,1 13,0 19,0 16,0 11,6 29 15 41 22 W 1012,9 20 12 0,0
24.04.2018 16:00:00 11,1 7,5 13,1 19,6 15,6 11,6 30 16 42 23 W 1013,2 16 41 0,0
24.04.2018 15:00:00 12,3 8,2 15,7 19,3 15,1 11,6 29 16 45 25 W 1013,0 9 59 0,0
24.04.2018 14:00:00 11,7 7,4 14,4 18,3 14,5 11,6 31 17 46 25 W 1013,1 11 57 0,0
24.04.2018 13:00:00 11,9 8,0 15,8 16,6 14,1 11,6 30 16 44 24 W 1013,0 12 42 0,0
24.04.2018 12:00:00 11,4 7,9 13,7 15,0 13,8 11,6 28 15 46 25 W 1012,6 19 27 0,0
24.04.2018 11:00:00 11,3 8,6 14,0 13,9 13,7 11,6 36 19 54 29 W 1012,3 17 9 0,0
24.04.2018 10:00:00 11,2 8,4 11,9 13,3 13,7 11,6 34 19 54 29 WSW 1011,6 17 13 0,0
24.04.2018 09:00:00 11,6 8,7 11,5 12,8 13,9 11,6 31 17 50 27 WSW 1011,3 25 0 0,0
24.04.2018 08:00:00 11,1 9,6 10,4 12,8 14,0 11,6 26 14 44 24 SW 1010,8 12 0 0,0
24.04.2018 07:00:00 11,1 9,5 10,6 12,9 14,2 11,6 25 13 44 24 SW 1010,4 13 0 0,0
24.04.2018 06:00:00 10,8 9,5 10,1 13,2 14,4 11,6 29 16 45 24 SW 1010,7 8 0 0,0
24.04.2018 05:00:00 11,2 8,4 11,0 13,3 14,6 11,6 29 16 51 28 SW 1011,0 21 0 0,0
24.04.2018 04:00:00 11,1 8,1 10,8 13,4 14,8 11,5 28 15 47 25 SW 1011,2 25 0 0,0
24.04.2018 03:00:00 11,1 7,8 10,6 13,7 15,0 11,5 27 14 45 24 SW 1011,6 25 0 0,0
24.04.2018 02:00:00 11,3 7,6 10,9 13,9 15,3 11,5 23 12 40 22 SSW 1012,2 25 0 0,0
24.04.2018 01:00:00 11,4 7,7 11,0 14,3 15,6 11,5 21 11 35 19 SSW 1013,1 23 0 0,0
24.04.2018 00:00:00 11,5 7,2 11,0 14,6 16,0 11,5 21 11 38 20 SW 1013,8 32 0 0,0
23.04.2018 23:00:00 11,3 7,0 10,6 15,0 16,3 11,5 14 7 25 13 SW 1014,0 42 0 0,0
23.04.2018 22:00:00 11,2 5,5 10,7 15,6 16,8 11,5 17 9 34 19 WSW 1014,1 49 0 0,0
23.04.2018 21:00:00 10,9 5,6 10,6 16,5 17,2 11,5 24 13 40 22 W 1014,3 39 4 0,0
23.04.2018 20:00:00 10,5 6,5 10,2 17,8 17,5 11,5 26 14 39 21 W 1014,3 22 34 0,0
23.04.2018 19:00:00 10,6 7,0 11,1 19,4 17,6 11,5 26 14 42 23 W 1014,5 12 60 0,0
23.04.2018 18:00:00 10,7 7,1 12,4 20,6 17,5 11,5 27 14 40 22 W 1014,6 15 60 0,0
23.04.2018 17:00:00 11,2 7,0 13,9 21,2 17,3 11,4 32 17 44 24 W 1014,3 11 60 0,0
23.04.2018 16:00:00 11,8 7,6 15,0 21,2 16,9 11,4 30 16 41 22 W 1014,2 13 59 0,0
23.04.2018 15:00:00 11,2 7,7 14,0 20,8 16,4 11,4 29 15 42 23 W 1014,0 9 60 0,0
23.04.2018 14:00:00 11,6 7,8 15,2 20,0 15,9 11,4 29 16 41 22 W 1013,6 6 60 0,0
23.04.2018 13:00:00 12,2 7,9 15,4 18,9 15,4 11,4 29 16 46 25 W 1013,3 14 59 0,0
23.04.2018 12:00:00 12,2 7,8 15,6 17,8 14,9 11,4 29 16 43 23 W 1012,9 8 60 0,0
23.04.2018 11:00:00 12,9 7,7 15,8 16,3 14,6 11,4 23 12 31 17 W 1012,2 11 60 0,0
23.04.2018 10:00:00 11,5 8,7 14,2 14,7 14,5 11,4 22 12 29 16 W 1011,6 12 40 0,0
23.04.2018 09:00:00 10,4 8,7 13,0 13,6 14,6 11,3 22 12 35 19 W 1010,7 9 59 0,0
23.04.2018 08:00:00 9,9 8,8 10,4 13,4 14,8 11,3 18 10 33 18 W 1009,8 4,2 17 0,0
23.04.2018 07:00:00 9,9 8,7 9,7 13,6 15,1 11,3 21 11 40 21 W 1009,1 3,4 0 0,0
23.04.2018 06:00:00 10,7 9,8 10,6 14,0 15,4 11,3 24 13 33 18 W 1008,9 4,1 0 0,0
23.04.2018 05:00:00 12,2 10,5 11,8 14,2 15,7 11,3 18 10 31 17 WSW 1008,5 6 0 0,0
23.04.2018 04:00:00 12,1 9,9 11,3 14,3 16,1 11,3 14 8 24 13 WSW 1008,3 8 0 0,0
23.04.2018 03:00:00 10,6 8,7 9,4 15,0 16,5 11,2 11 6 23 12 W 1007,9 7 0 0,0
23.04.2018 02:00:00 12,3 9,5 11,2 15,9 16,8 11,2 16 9 31 17 W 1008,1 9 0 0,0
23.04.2018 01:00:00 15,6 13,0 14,3 16,6 17,2 11,2 15 8 30 16 SSW 1007,8 8 0 0,0
23.04.2018 00:00:00 16,0 12,9 15,0 17,3 17,5 11,2 21 11 32 17 S 1007,8 17 0 0,0
22.04.2018 23:00:00 17,3 13,7 16,7 18,0 17,9 11,2 21 11 37 20 S 1007,8 12 0 0,0
22.04.2018 22:00:00 17,8 13,5 16,7 18,8 18,2 11,2 18 10 44 24 S 1007,9 13 0 0,0
22.04.2018 21:00:00 19,1 13,2 17,5 19,9 18,5 11,2 10 5 18 10 SE 1007,7 22 3 0,0
22.04.2018 20:00:00 19,4 12,3 18,5 21,4 18,6 11,2 7 4 18 10 E 1007,7 27 18 0,0
22.04.2018 19:00:00 22,5 12,2 22,9 22,9 18,4 11,2 12 6 24 13 ESE 1007,9 26 45 0,0
22.04.2018 18:00:00 21,9 11,9 23,8 23,3 18,0 11,2 12 6 19 10 SE 1008,5 24 51 0,0
22.04.2018 17:00:00 17,9 11,0 19,7 23,6 17,6 11,2 14 7 26 14 ENE 1009,3 17 60 0,0
22.04.2018 16:00:00 16,6 9,9 19,0 23,8 16,9 11,2 22 12 30 16 ENE 1010,3 17 58 0,0
22.04.2018 15:00:00 21,5 9,0 24,9 22,9 16,0 11,2 16 9 34 18 ESE 1011,0 18 60 0,0
22.04.2018 14:00:00 20,2 7,7 23,3 21,6 15,2 11,2 18 10 34 18 ESE 1011,8 38 59 0,0
22.04.2018 13:00:00 19,5 9,1 22,8 20,0 14,3 11,2 14 8 30 16 E 1012,8 16 60 0,0
22.04.2018 12:00:00 18,0 8,1 21,7 17,5 13,6 11,2 15 8 31 17 ESE 1013,7 14 43 0,0
22.04.2018 11:00:00 15,9 7,0 19,1 15,5 13,1 11,2 18 10 29 16 SE 1014,5 30 60 0,0
22.04.2018 10:00:00 13,4 6,7 15,2 13,3 12,8 11,2 18 10 30 16 ESE 1014,7 35 60 0,0
22.04.2018 09:00:00 11,2 6,0 12,6 11,5 12,8 11,2 14 8 25 13 ESE 1015,6 26 60 0,0
22.04.2018 08:00:00 9,7 6,6 9,6 10,8 13,0 11,1 13 7 20 11 SE 1016,4 13 35 0,0
22.04.2018 07:00:00 8,1 6,7 7,1 10,5 13,3 11,1 11 6 17 9 ESE 1016,6 6 0 0,0
22.04.2018 06:00:00 7,7 5,9 6,1 10,8 13,7 11,1 10 5 13 7 ESE 1017,2 15 0 0,0
22.04.2018 05:00:00 8,1 6,2 6,6 11,2 14,0 11,1 9 5 16 9 ESE 1017,7 16 0 0,0
22.04.2018 04:00:00 8,7 6,5 7,1 11,6 14,4 11,1 9 5 17 9 SE 1018,4 16 0 0,0
22.04.2018 03:00:00 8,2 6,6 6,7 12,0 14,9 11,1 11 6 14 8 ESE 1018,7 19 0 0,0
22.04.2018 02:00:00 8,2 6,5 6,5 12,5 15,4 11,0 7 4 11 6 E 1019,6 20 0 0,0
22.04.2018 01:00:00 8,2 6,5 6,5 13,2 15,9 11,0 8 4 12 6 E 1020,1 12 0 0,0
22.04.2018 00:00:00 8,3 6,5 7,1 14,0 16,5 11,0 9 5 11 6 ENE 1020,5 20 0 0,0
21.04.2018 23:00:00 9,3 7,3 7,8 14,9 17,1 11,0 8 5 9 5 NE 1020,7 17 0 0,0
21.04.2018 22:00:00 10,0 7,0 7,8 16,2 17,8 11,0 4 2 6 3 ENE 1021,0 21 0 0,0
21.04.2018 21:00:00 10,5 7,9 8,1 17,8 18,3 11,0 3 2 5 3 NNE 1021,2 33 17 0,0
21.04.2018 20:00:00 10,8 8,1 10,4 20,0 18,6 11,0 3 2 7 4 NNE 1021,3 25 60 0,0
21.04.2018 19:00:00 11,4 7,8 13,2 22,1 18,7 11,0 4 2 9 5 N 1021,8 22 60 0,0
21.04.2018 18:00:00 10,6 7,2 14,5 23,3 18,4 11,0 7 4 10 6 N 1022,2 20 60 0,0
21.04.2018 17:00:00 10,8 7,1 16,7 24,0 18,0 11,0 8 5 11 6 N 1022,7 39 60 0,0
21.04.2018 16:00:00 11,1 7,0 17,9 24,0 17,3 11,0 7 4 11 6 N 1023,4 16 59 0,0
21.04.2018 15:00:00 10,8 7,0 18,4 23,3 16,5 10,9 7 4 11 6 NNW 1023,7 16 60 0,0
21.04.2018 14:00:00 10,9 6,8 18,7 22,1 15,6 10,9 8 4 11 6 WNW 1023,9 19 60 0,0
21.04.2018 13:00:00 11,3 7,3 18,6 20,2 14,7 10,9 5 3 10 5 NNW 1024,0 20 60 0,0
21.04.2018 12:00:00 10,7 6,5 18,1 18,0 14,0 10,9 7 4 11 6 NNW 1024,3 15 60 0,0
21.04.2018 11:00:00 10,9 7,2 15,7 15,6 13,5 10,9 10 5 18 10 NW 1024,0 20 60 0,0
21.04.2018 10:00:00 10,2 7,4 14,8 13,4 13,3 10,8 12 6 20 11 NNW 1023,7 18 60 0,0
21.04.2018 09:00:00 9,4 7,8 12,1 11,8 13,4 10,8 16 9 19 11 NNW 1023,2 18 60 0,0
21.04.2018 08:00:00 8,9 7,5 9,0 11,1 13,6 10,8 9 5 17 9 NNW 1022,9 12 59 0,0

tt = Température de l'air
td = dewpoint
tt 5cm = Température de l'air 5cm
tt -5cm = Température de l'air -5cm
tt -20cm = Température de l'air -20cm
tt -100cm = Température de l'air -100cm
ff = Vitesse du vent
fx = gusts
dd = Direction du vent
ppp = reduced air pressure
vv = visibility
sd = Ensoleillement
rr = Quantités de précipitations

stations d'obs. à proximité